Regional Weather Roundup
Issued by NWS

Home | Current Version | Previous Version | Graphics & Text | Print | Product List | Glossary On
Versions: 1 2 3 4 5 6 7 8 9 10 11 12 13 14 15 16 17 18 19 20 21 22 23 24 25 26 27 28 29 30 31 32 33 34 35 36 37 38 39 40 41 42 43 44 45 46 47 48 49 50
000
ASUS43 KOAX 230910
RWRNE

WEATHER ROUNDUP FOR NEBRASKA
NATIONAL WEATHER SERVICE OMAHA NE
400 AM CDT SAT AUG 23 2014

NOTES: SATELLITE DATA IS BEING USED TO AUGMENT CLOUD COVER ABOVE
       12000 FEET.
       "FAIR" INDICATES FEW OR NO CLOUDS BELOW 12,000 FEET WITH NO
       SIGNIFICANT WEATHER AND/OR OBSTRUCTIONS TO VISIBILITY.

  * THESE STATIONS DO NOT REPORT WEATHER SUCH AS RAIN...SNOW OR FOG.

NEZ001>004-019>022-054>056-231000-
NEBRASKA PANHANDLE

CITY           SKY/WX    TMP DP  RH WIND       PRES   REMARKS
SCOTTSBLUFF    CLOUDY    62  61  96 CALM      29.96S
ALLIANCE       CLOUDY    62  60  93 NE7       29.95F
CHADRON        LGT RAIN  65  62  90 CALM      29.94F
KIMBALL        MOCLDY    60  59  98 CALM      29.97F
SIDNEY         CLOUDY    62  60  93 CALM      29.99S
$$

NEZ057>060-069>072-079>082-231000-
SOUTHWEST NEBRASKA

CITY           SKY/WX    TMP DP  RH WIND       PRES   REMARKS
NORTH PLATTE   CLOUDY    65  64  97 CALM      29.88R
IMPERIAL       MOCLDY    66  64  93 W5        29.92S
LEXINGTON      CLOUDY    67  66  96 SE9       29.86F
MCCOOK         MOCLDY    67  65  93 E12       29.87F
OGALLALA       CLOUDY    64  63  97 SW3       29.91F
$$

NEZ005>010-023>029-035>040-094-231000-
NORTH CENTRAL NEBRASKA

CITY           SKY/WX    TMP DP  RH WIND       PRES   REMARKS
VALENTINE      CLOUDY    66  65  96 E6        29.90F
AINSWORTH      CLOUDY    67  66  97 CALM      29.90S
BROKEN BOW     CLOUDY    67 N/A N/A SE3       29.84F
O`NEILL        LGT RAIN  68  67  96 CALM      29.87F
ORD            CLOUDY    67  66  97 SE5       29.83F
THEDFORD       CLOUDY    67  66  97 NW3       29.90F
$$

NEZ041-046>049-061>064-073>077-083>087-231000-
SOUTH CENTRAL NEBRASKA

CITY           SKY/WX    TMP DP  RH WIND       PRES   REMARKS
GRAND ISLAND   CLOUDY    68  65  90 E9        29.89F
AURORA         CLOUDY    68  68 100 E8        29.89F
HASTINGS       CLOUDY    67  63  87 E6        29.89S
HEBRON         MOCLDY    70  66  85 E8        29.89F
HOLDREGE       MOCLDY    67  65  95 E8        29.87F
KEARNEY *      CLOUDY    66  64  94 E9        29.88S
YORK           CLOUDY    68 N/A N/A E8        29.90F
$$

NEZ011>018-030>034-042>045-231000-
NORTHEAST NEBRASKA

CITY           SKY/WX    TMP DP  RH WIND       PRES   REMARKS
NORFOLK        LGT RAIN  68  66  93 E7        29.88F
ALBION         CLOUDY    67  65  93 E9        29.86F
BLAIR          CLOUDY    71  68  92 N12       29.92F
FREMONT        CLOUDY    70  68  93 N3        29.90F
TEKAMAH        CLOUDY    70  68  93 NE6       29.95F
WAYNE          LGT RAIN  69  67  96 E6        29.92F
$$

NEZ050>053-065>068-078-088>093-231000-
SOUTHEAST NEBRASKA

CITY           SKY/WX    TMP DP  RH WIND       PRES   REMARKS
LINCOLN        LGT RAIN  70  68  93 N8        29.91F
OMAHA EPPLEY   LGT RAIN  72  68  87 NE9       29.96R
BEATRICE       CLOUDY    70  69  95 NE12      29.89F
FALLS CITY     CLOUDY    77  74  90 NW9       29.90R
NEBRASKA CITY  CLOUDY    71  71 100 N12       29.93F
PLATTSMOUTH    CLOUDY    71  69  92 N7        29.95R
$$

NEZ044-045-051>053-067-231000-
OMAHA AREA

CITY           SKY/WX    TMP DP  RH WIND       PRES   REMARKS
OMAHA EPPLEY   LGT RAIN  72  68  87 NE9       29.96R
BLAIR          CLOUDY    71  68  92 N12       29.92F
FREMONT        CLOUDY    70  68  93 N3        29.90F
MILLARD        TSTM      72  69  90 N6        29.93F
OFFUTT AFB     CLOUDY    71  71 100 NE5       29.96R
PLATTSMOUTH    CLOUDY    71  69  92 N7        29.95R
WAHOO          PTSUNNY   69  67  91 N3        29.92R
$$


USA.gov is the U.S. government's official web portal to all federal, state and local government web resources and services.